,,PA_Meas_PMT16A,,PR_Meas_QMR101_102,,RH_Meas_QMH101,,SR_Meas_QMS101,,TA_Meas_QMH101,,GenWind,,GenWind,
time,status,PA,status,PR,status,RH,status,SR,status,TA,status,DirAvg,status,SpdAvg,
2017-01-29, 16:11:04,VALID,919.83,VALID,0,INVALID,131.641,VALID,127.533,VALID,19.9368,VALID,155,VALID,1.07813,
2017-01-29, 16:12:04,VALID,919.841,VALID,0,INVALID,131.58,VALID,132.367,VALID,19.9953,VALID,144,VALID,0.973828,
2017-01-29, 16:13:04,VALID,919.819,VALID,0,INVALID,131.542,VALID,137.417,VALID,20.0133,VALID,169,VALID,0.879687,
2017-01-29, 16:14:04,VALID,919.837,VALID,0,INVALID,131.603,VALID,142.574,VALID,20.0343,VALID,169,VALID,0.919141,
2017-01-29, 16:15:04,VALID,919.829,VALID,0,INVALID,131.542,VALID,147.946,VALID,20.0718,VALID,169,VALID,0.0417969,
2017-01-29, 16:16:04,VALID,919.821,VALID,0,INVALID,131.428,VALID,153.211,VALID,20.1708,VALID,162,VALID,0,
2017-01-29, 16:17:04,VALID,919.813,VALID,0,INVALID,131.451,VALID,158.583,VALID,20.2083,VALID,166,VALID,1.4793,
2017-01-29, 16:18:04,VALID,919.829,VALID,0,INVALID,131.58,VALID,163.74,VALID,20.1888,VALID,177,VALID,0.879297,
2017-01-29, 16:19:04,VALID,919.82,VALID,0,INVALID,131.71,VALID,169.005,VALID,20.1903,VALID,157,VALID,0.734375,
2017-01-29, 16:20:04,VALID,919.827,VALID,0,INVALID,131.733,VALID,174.699,VALID,20.2684,VALID,168,VALID,1.59883,
2017-01-29, 16:21:04,VALID,919.82,VALID,0,INVALID,131.816,VALID,180.931,VALID,20.2684,VALID,161,VALID,1.73125,
2017-01-29, 16:22:04,VALID,919.833,VALID,0,INVALID,131.87,VALID,186.733,VALID,20.2668,VALID,157,VALID,1.56133,
2017-01-29, 16:23:04,VALID,919.821,VALID,0,INVALID,131.885,VALID,192.427,VALID,20.2489,VALID,155,VALID,2.25117,
2017-01-29, 16:24:04,VALID,919.825,VALID,0,INVALID,131.885,VALID,197.907,VALID,20.2489,VALID,162,VALID,1.83516,
2017-01-29, 16:25:04,VALID,919.803,VALID,0,INVALID,131.824,VALID,203.601,VALID,20.2278,VALID,142,VALID,1.75391,
2017-01-29, 16:26:04,VALID,919.823,VALID,0,INVALID,131.847,VALID,208.866,VALID,20.2278,VALID,170,VALID,1.81758,
2017-01-29, 16:27:04,VALID,919.86,VALID,0,INVALID,131.801,VALID,214.13,VALID,20.2879,VALID,161,VALID,1.3918,
2017-01-29, 16:28:04,VALID,919.855,VALID,0,INVALID,131.656,VALID,219.395,VALID,20.4033,VALID,145,VALID,0.26875,
2017-01-29, 16:29:04,VALID,919.873,VALID,0,INVALID,131.71,VALID,224.767,VALID,20.4033,VALID,160,VALID,1.18164,
2017-01-29, 16:30:04,VALID,919.871,VALID,0,INVALID,131.801,VALID,230.569,VALID,20.3823,VALID,159,VALID,1.80391,
2017-01-29, 16:31:04,VALID,919.894,VALID,0,INVALID,131.87,VALID,235.296,VALID,20.3643,VALID,165,VALID,1.2918,
2017-01-29, 16:32:04,VALID,919.905,VALID,0,INVALID,131.877,VALID,240.131,VALID,20.4033,VALID,148,VALID,1.5875,
2017-01-29, 16:33:04,VALID,919.904,VALID,0,INVALID,131.877,VALID,244.644,VALID,20.3854,VALID,137,VALID,1.4793,
2017-01-29, 16:34:04,VALID,919.907,VALID,0.2,INVALID,131.832,VALID,249.908,VALID,20.4634,VALID,122,VALID,1.24453,
2017-01-29, 16:35:04,VALID,919.899,VALID,0,INVALID,131.832,VALID,254.421,VALID,20.4829,VALID,107,VALID,1.33828,
2017-01-29, 16:36:04,VALID,919.921,VALID,0,INVALID,131.877,VALID,260.008,VALID,20.5024,VALID,114,VALID,1.32344,
2017-01-29, 16:37:04,VALID,919.916,VALID,0,INVALID,131.885,VALID,264.842,VALID,20.5219,VALID,118,VALID,0.744922,
2017-01-29, 16:38:04,VALID,919.905,VALID,0,INVALID,131.893,VALID,269.462,VALID,20.5999,VALID,96,VALID,1.325,
2017-01-29, 16:39:04,VALID,919.936,VALID,0,INVALID,131.862,VALID,273.545,VALID,20.717,VALID,103,VALID,0.994141,
2017-01-29, 16:40:04,VALID,919.925,VALID,0,INVALID,131.87,VALID,280.099,VALID,20.717,VALID,97,VALID,0.244141,
2017-01-29, 16:41:04,VALID,919.948,VALID,0,INVALID,131.832,VALID,288.05,VALID,20.795,VALID,105,VALID,0,
2017-01-29, 16:42:04,VALID,919.945,VALID,0,INVALID,131.855,VALID,278.917,VALID,20.9105,VALID,44,VALID,0,
2017-01-29, 16:43:04,VALID,919.908,VALID,0,INVALID,131.74,VALID,281.281,VALID,20.93,VALID,91,VALID,0,
2017-01-29, 16:44:04,VALID,919.95,VALID,0,INVALID,131.161,VALID,285.686,VALID,20.9511,VALID,90,VALID,0.891406,
2017-01-29, 16:45:04,VALID,919.945,VALID,0,INVALID,131.191,VALID,289.554,VALID,21.0291,VALID,93,VALID,0,
2017-01-29, 16:46:04,VALID,919.919,VALID,0,INVALID,130.216,VALID,294.711,VALID,21.0096,VALID,73,VALID,1.3375,
2017-01-29, 16:47:04,VALID,919.955,VALID,0,INVALID,130.124,VALID,304.596,VALID,21.1071,VALID,74,VALID,0.632422,
2017-01-29, 16:48:04,VALID,919.969,VALID,0,INVALID,130.925,VALID,308.678,VALID,21.2226,VALID,114,VALID,0,
2017-01-29, 16:49:04,VALID,919.954,VALID,0,INVALID,130.46,VALID,300.298,VALID,21.2421,VALID,122,VALID,1.0875,
2017-01-29, 16:50:04,VALID,919.969,VALID,0,INVALID,130.406,VALID,302.662,VALID,21.3396,VALID,125,VALID,0,
2017-01-29, 16:51:04,VALID,920,VALID,0,INVALID,130.642,VALID,307.926,VALID,21.4177,VALID,124,VALID,0,
2017-01-29, 16:52:04,VALID,919.982,VALID,0,INVALID,130.764,VALID,306.315,VALID,21.4957,VALID,125,VALID,0,
2017-01-29, 16:53:04,VALID,920.015,VALID,0,INVALID,130.147,VALID,303.521,VALID,21.5542,VALID,105,VALID,0,
2017-01-29, 16:54:04,VALID,920.011,VALID,0,INVALID,129.103,VALID,301.695,VALID,21.5737,VALID,127,VALID,0,
2017-01-29, 16:55:04,VALID,919.999,VALID,0,INVALID,128.401,VALID,301.802,VALID,21.5737,VALID,129,VALID,0,
2017-01-29, 16:56:04,VALID,919.987,VALID,0,INVALID,128.92,VALID,302.339,VALID,21.6518,VALID,129,VALID,0,
2017-01-29, 16:57:04,VALID,919.976,VALID,0,INVALID,129.949,VALID,302.017,VALID,21.7688,VALID,129,VALID,0,
2017-01-29, 16:58:04,VALID,919.968,VALID,0,INVALID,130.566,VALID,301.802,VALID,21.8842,VALID,129,VALID,0,
2017-01-29, 16:59:04,VALID,919.995,VALID,0,INVALID,129.903,VALID,304.273,VALID,21.9249,VALID,126,VALID,0,
2017-01-29, 17:00:04,VALID,919.931,VALID,0,INVALID,130.406,VALID,310.183,VALID,22.0403,VALID,108,VALID,0,
2017-01-29, 17:01:04,VALID,919.951,VALID,0,INVALID,130.376,VALID,318.241,VALID,22.1574,VALID,53,VALID,0,
2017-01-29, 17:02:04,VALID,919.926,VALID,0,INVALID,128.012,VALID,327.803,VALID,22.1184,VALID,49,VALID,0,
2017-01-29, 17:03:04,VALID,919.893,VALID,0,INVALID,125.824,VALID,341.233,VALID,22.1201,VALID,51,VALID,0,
2017-01-29, 17:04:04,VALID,919.891,VALID,0,VALID,104,VALID,350.795,VALID,22.0225,VALID,39,VALID,1.49063,
2017-01-29, 17:05:04,VALID,919.86,VALID,0,VALID,103.168,VALID,374.862,VALID,21.8647,VALID,51,VALID,1.63281,
2017-01-29, 17:06:04,VALID,919.851,VALID,0,INVALID,127.212,VALID,423.64,VALID,21.9054,VALID,36,VALID,1.38984,
2017-01-29, 17:07:04,VALID,919.846,VALID,0,INVALID,128.981,VALID,408.491,VALID,21.9444,VALID,358,VALID,1.18242,
2017-01-29, 17:08:04,VALID,919.769,VALID,0,INVALID,130.688,VALID,384.962,VALID,22.1005,VALID,356,VALID,0.242188,
2017-01-29, 17:09:04,VALID,919.787,VALID,0,INVALID,128.599,VALID,396.136,VALID,21.964,VALID,7,VALID,1.51328,
2017-01-29, 17:10:04,VALID,919.759,VALID,0,INVALID,128.096,VALID,393.449,VALID,21.8859,VALID,358,VALID,0,
2017-01-29, 17:11:04,VALID,919.74,VALID,0,INVALID,129.438,VALID,389.152,VALID,21.8436,VALID,22,VALID,1.39844,
2017-01-29, 17:12:04,VALID,919.717,VALID,0,INVALID,129.88,VALID,395.383,VALID,21.8241,VALID,45,VALID,2.14727,
2017-01-29, 17:13:04,VALID,919.756,VALID,0,INVALID,129.827,VALID,411.822,VALID,21.8647,VALID,45,VALID,1.93906,
2017-01-29, 17:14:04,VALID,919.767,VALID,0,INVALID,129.072,VALID,411.929,VALID,21.8436,VALID,55,VALID,0.0121094,
2017-01-29, 17:15:04,VALID,919.753,VALID,0,INVALID,125.954,VALID,426.649,VALID,21.8826,VALID,40,VALID,0,
2017-01-29, 17:16:04,VALID,919.77,VALID,0,VALID,104,VALID,431.913,VALID,21.8826,VALID,15,VALID,0,
2017-01-29, 17:17:04,VALID,919.758,VALID,0,VALID,104,VALID,437.178,VALID,21.9021,VALID,42,VALID,0,
2017-01-29, 17:18:04,VALID,919.801,VALID,0,INVALID,125.474,VALID,428.475,VALID,22.0191,VALID,45,VALID,1.26094,
2017-01-29, 17:19:04,VALID,919.786,VALID,0,INVALID,128.447,VALID,404.731,VALID,22.1964,VALID,21,VALID,0,
2017-01-29, 17:20:04,VALID,919.801,VALID,0,VALID,98.3344,VALID,380.449,VALID,22.1557,VALID,14,VALID,0,
2017-01-29, 17:21:04,VALID,919.814,VALID,0,VALID,104,VALID,361.325,VALID,22.2159,VALID,28,VALID,0,
2017-01-29, 17:22:04,VALID,919.776,VALID,0,INVALID,121.952,VALID,354.448,VALID,22.3135,VALID,34,VALID,0,
2017-01-29, 17:23:04,VALID,919.804,VALID,0,INVALID,127.707,VALID,350.151,VALID,22.4289,VALID,358,VALID,0,
2017-01-29, 17:24:04,VALID,919.813,VALID,0,INVALID,126.274,VALID,344.779,VALID,22.4094,VALID,346,VALID,1.73047,
2017-01-29, 17:25:04,VALID,919.801,VALID,0,INVALID,126.625,VALID,335.539,VALID,22.3703,VALID,26,VALID,1.85156,
2017-01-29, 17:26:04,VALID,919.767,VALID,0,INVALID,126.137,VALID,322.109,VALID,22.3118,VALID,28,VALID,1.58047,
2017-01-29, 17:27:04,VALID,919.774,VALID,0,INVALID,122.676,VALID,329.844,VALID,22.2533,VALID,23,VALID,1.18867,
2017-01-29, 17:28:04,VALID,919.743,VALID,0,INVALID,127.075,VALID,329.415,VALID,22.2728,VALID,33,VALID,0,
2017-01-29, 17:29:04,VALID,919.756,VALID,0,INVALID,128.485,VALID,333.927,VALID,22.2338,VALID,38,VALID,1.92383,
2017-01-29, 17:30:04,VALID,919.749,VALID,0,INVALID,129.766,VALID,349.613,VALID,22.2728,VALID,4,VALID,1.26563,
2017-01-29, 17:31:04,VALID,919.773,VALID,0,INVALID,129.194,VALID,354.986,VALID,22.2338,VALID,3,VALID,1.25508,
2017-01-29, 17:32:04,VALID,919.791,VALID,0,INVALID,129.019,VALID,366.159,VALID,22.3118,VALID,8,VALID,0.978906,
2017-01-29, 17:33:04,VALID,919.812,VALID,0,INVALID,128.104,VALID,390.119,VALID,22.3508,VALID,336,VALID,0.932031,
2017-01-29, 17:34:04,VALID,919.788,VALID,0,INVALID,125.222,VALID,412.681,VALID,22.4094,VALID,1,VALID,0,
2017-01-29, 17:35:04,VALID,919.786,VALID,0,INVALID,119.276,VALID,416.334,VALID,22.4679,VALID,2,VALID,0,
2017-01-29, 17:36:04,VALID,919.8,VALID,0,INVALID,124.17,VALID,405.59,VALID,22.624,VALID,26,VALID,0,
2017-01-29, 17:37:04,VALID,919.754,VALID,0,INVALID,126.396,VALID,403.656,VALID,22.7996,VALID,357,VALID,0,
2017-01-29, 17:38:04,VALID,919.763,VALID,0,INVALID,125.23,VALID,420.417,VALID,22.9167,VALID,294,VALID,0,
2017-01-29, 17:39:04,VALID,919.761,VALID,0,INVALID,127.326,VALID,476.609,VALID,23.0728,VALID,25,VALID,0,
2017-01-29, 17:40:04,VALID,919.768,VALID,0,INVALID,127.319,VALID,639.06,VALID,23.2875,VALID,311,VALID,0,
2017-01-29, 17:41:04,VALID,919.745,VALID,0,INVALID,118.544,VALID,529.363,VALID,23.4454,VALID,304,VALID,0,
2017-01-29, 17:42:04,VALID,919.76,VALID,0,INVALID,116.981,VALID,451.36,VALID,23.5803,VALID,16,VALID,0,
2017-01-29, 17:43:04,VALID,919.768,VALID,0,VALID,99.5847,VALID,473.601,VALID,23.7364,VALID,300,VALID,0,
2017-01-29, 17:44:04,VALID,919.794,VALID,0,VALID,95.2546,VALID,453.079,VALID,23.834,VALID,300,VALID,0,
2017-01-29, 17:45:04,VALID,919.782,VALID,0,VALID,98.4869,VALID,440.509,VALID,23.9512,VALID,317,VALID,0,
2017-01-29, 17:46:04,VALID,919.779,VALID,0,VALID,85.893,VALID,443.839,VALID,23.9902,VALID,311,VALID,0,
2017-01-29, 17:47:04,VALID,919.779,VALID,0,VALID,87.4863,VALID,429.872,VALID,23.9902,VALID,287,VALID,0,
2017-01-29, 17:48:04,VALID,919.805,VALID,0,VALID,80.3279,VALID,446.848,VALID,23.8536,VALID,301,VALID,0,
2017-01-29, 17:49:04,VALID,919.776,VALID,0,VALID,80.8311,VALID,375.292,VALID,23.6974,VALID,302,VALID,0,
2017-01-29, 17:50:04,VALID,919.793,VALID,0,VALID,82.7064,VALID,342.415,VALID,23.5803,VALID,310,VALID,0,
2017-01-29, 17:51:04,VALID,919.822,VALID,0,VALID,83.7356,VALID,335.539,VALID,23.4632,VALID,309,VALID,0,
2017-01-29, 17:52:04,VALID,919.834,VALID,0,VALID,85.2755,VALID,343.812,VALID,23.268,VALID,309,VALID,0,
2017-01-29, 17:53:04,VALID,919.815,VALID,0,VALID,86.5182,VALID,358.209,VALID,23.0906,VALID,291,VALID,0,
2017-01-29, 17:54:04,VALID,919.837,VALID,0,VALID,97.473,VALID,323.72,VALID,23.1491,VALID,302,VALID,0,
2017-01-29, 17:55:04,VALID,919.813,VALID,0,VALID,96.642,VALID,323.183,VALID,23.2875,VALID,1,VALID,0,
2017-01-29, 17:56:04,VALID,919.799,VALID,0,VALID,85.8854,VALID,324.795,VALID,23.2857,VALID,333,VALID,0.0941406,
2017-01-29, 17:57:04,VALID,919.806,VALID,0,VALID,90.711,VALID,326.729,VALID,23.2875,VALID,15,VALID,0,
2017-01-29, 17:58:04,VALID,919.788,VALID,0,VALID,88.0428,VALID,340.911,VALID,23.2875,VALID,303,VALID,0,
2017-01-29, 17:59:04,VALID,919.804,VALID,0,VALID,89.9716,VALID,338.44,VALID,23.3851,VALID,303,VALID,0,
2017-01-29, 18:00:04,VALID,919.786,VALID,0,VALID,86.3962,VALID,343.812,VALID,23.4224,VALID,287,VALID,0,
2017-01-29, 18:01:04,VALID,919.795,VALID,0,VALID,87.959,VALID,349.828,VALID,23.4028,VALID,286,VALID,0,
2017-01-29, 18:02:04,VALID,919.786,VALID,0,VALID,88.6527,VALID,359.283,VALID,23.4241,VALID,342,VALID,0,
2017-01-29, 18:03:04,VALID,919.743,VALID,0,VALID,98.243,VALID,388.722,VALID,23.4809,VALID,341,VALID,0,
2017-01-29, 18:04:04,VALID,919.731,VALID,0,INVALID,110.982,VALID,407.632,VALID,23.6566,VALID,359,VALID,0,
2017-01-29, 18:05:04,VALID,919.73,VALID,0,VALID,88.241,VALID,384.317,VALID,23.7737,VALID,264,VALID,0,
2017-01-29, 18:06:04,VALID,919.705,VALID,0,VALID,87.8446,VALID,384.532,VALID,23.6956,VALID,252,VALID,0,
2017-01-29, 18:07:04,VALID,919.677,VALID,0,VALID,87.1128,VALID,389.582,VALID,23.5785,VALID,252,VALID,0,
2017-01-29, 18:08:04,VALID,919.636,VALID,0,VALID,86.2589,VALID,403.442,VALID,23.5199,VALID,254,VALID,0,
2017-01-29, 18:09:04,VALID,919.634,VALID,0,VALID,87.0899,VALID,422.781,VALID,23.4028,VALID,287,VALID,0,
2017-01-29, 18:10:04,VALID,919.58,VALID,0,VALID,90.1393,VALID,477.254,VALID,23.3248,VALID,292,VALID,0,
2017-01-29, 18:11:04,VALID,919.524,VALID,0,VALID,90.2308,VALID,451.683,VALID,23.3815,VALID,293,VALID,0,
2017-01-29, 18:12:04,VALID,919.528,VALID,0,VALID,88.0505,VALID,459.418,VALID,23.4827,VALID,341,VALID,0,
2017-01-29, 18:13:04,VALID,919.515,VALID,0,VALID,87.4863,VALID,506.263,VALID,23.5785,VALID,277,VALID,0,
2017-01-29, 18:14:04,VALID,919.481,VALID,0,VALID,85.6262,VALID,471.667,VALID,23.5199,VALID,278,VALID,0,
2017-01-29, 18:15:04,VALID,919.463,VALID,0,VALID,87.2119,VALID,482.841,VALID,23.4401,VALID,269,VALID,0,
2017-01-29, 18:16:04,VALID,919.418,VALID,0,VALID,89.3083,VALID,493.477,VALID,23.5199,VALID,337,VALID,0,
2017-01-29, 18:17:04,VALID,919.392,VALID,0,VALID,93.9967,VALID,586.414,VALID,23.6157,VALID,5,VALID,0,
2017-01-29, 18:18:04,VALID,919.385,VALID,0,VALID,98.1743,VALID,555.256,VALID,23.8713,VALID,50,VALID,0,
2017-01-29, 18:19:04,VALID,919.359,VALID,0,VALID,92.4568,VALID,593.612,VALID,24.0842,VALID,13,VALID,0,
2017-01-29, 18:20:04,VALID,919.347,VALID,0,VALID,85.024,VALID,501.965,VALID,24.2421,VALID,342,VALID,0,
2017-01-29, 18:21:04,VALID,919.352,VALID,0,VALID,82.9656,VALID,469.733,VALID,24.3574,VALID,346,VALID,0,
2017-01-29, 18:22:04,VALID,919.355,VALID,0,VALID,82.4091,VALID,465.435,VALID,24.4745,VALID,31,VALID,0,
2017-01-29, 18:23:04,VALID,919.362,VALID,0,VALID,80.8158,VALID,443.839,VALID,24.5136,VALID,293,VALID,0,
2017-01-29, 18:24:04,VALID,919.382,VALID,0,VALID,82.0051,VALID,438.36,VALID,24.535,VALID,282,VALID,0,
2017-01-29, 18:25:04,VALID,919.361,VALID,0,VALID,80.4194,VALID,434.062,VALID,24.5136,VALID,254,VALID,0,
2017-01-29, 18:26:04,VALID,919.355,VALID,0,VALID,83.7813,VALID,431.699,VALID,24.4569,VALID,263,VALID,0,
2017-01-29, 18:27:04,VALID,919.343,VALID,0,VALID,82.3176,VALID,428.475,VALID,24.3965,VALID,270,VALID,0,
2017-01-29, 18:28:04,VALID,919.332,VALID,0,VALID,81.0445,VALID,426.864,VALID,24.455,VALID,258,VALID,0,
2017-01-29, 18:29:04,VALID,919.325,VALID,0,VALID,77.797,VALID,422.244,VALID,24.4355,VALID,234,VALID,0,
2017-01-29, 18:30:04,VALID,919.311,VALID,0,VALID,78.1324,VALID,417.087,VALID,24.5331,VALID,228,VALID,0,
2017-01-29, 18:31:04,VALID,919.275,VALID,0,VALID,77.37,VALID,408.384,VALID,24.6112,VALID,216,VALID,0,
2017-01-29, 18:32:04,VALID,919.275,VALID,0,VALID,76.3714,VALID,402.689,VALID,24.6698,VALID,216,VALID,0,
2017-01-29, 18:33:04,VALID,919.269,VALID,0,VALID,74.8924,VALID,401.4,VALID,24.7693,VALID,216,VALID,0,
2017-01-29, 18:34:04,VALID,919.286,VALID,0,VALID,75.4337,VALID,403.442,VALID,24.8278,VALID,271,VALID,0,
2017-01-29, 18:35:04,VALID,919.269,VALID,0,VALID,75.9978,VALID,412.896,VALID,24.7888,VALID,270,VALID,0,
2017-01-29, 18:36:04,VALID,919.265,VALID,0,VALID,77.431,VALID,412.467,VALID,24.7302,VALID,264,VALID,0,
2017-01-29, 18:37:04,VALID,919.275,VALID,0,VALID,80.5261,VALID,416.657,VALID,24.6326,VALID,283,VALID,0,
2017-01-29, 18:38:04,VALID,919.259,VALID,0,VALID,77.492,VALID,421.921,VALID,24.4959,VALID,241,VALID,0,
2017-01-29, 18:39:04,VALID,919.234,VALID,0,VALID,77.5378,VALID,427.186,VALID,24.2989,VALID,249,VALID,0,
2017-01-29, 18:40:04,VALID,919.226,VALID,0,VALID,79.2835,VALID,429.227,VALID,24.2421,VALID,253,VALID,0,
2017-01-29, 18:41:04,VALID,919.223,VALID,0,VALID,76.5162,VALID,424.393,VALID,24.2812,VALID,326,VALID,0,
2017-01-29, 18:42:04,VALID,919.171,VALID,0,VALID,78.7575,VALID,419.343,VALID,24.3202,VALID,329,VALID,0,
2017-01-29, 18:43:04,VALID,919.173,VALID,0,VALID,78.5898,VALID,415.905,VALID,24.3398,VALID,299,VALID,0,
2017-01-29, 18:44:04,VALID,919.183,VALID,0,VALID,80.0992,VALID,413.863,VALID,24.2421,VALID,325,VALID,0,
2017-01-29, 18:45:04,VALID,919.126,VALID,0,VALID,81.5934,VALID,412.896,VALID,24.2031,VALID,311,VALID,0,
2017-01-29, 18:46:04,VALID,919.133,VALID,0,VALID,81.2504,VALID,411.607,VALID,24.2421,VALID,303,VALID,0,
2017-01-29, 18:47:04,VALID,919.098,VALID,0,VALID,80.9454,VALID,410.748,VALID,24.2812,VALID,293,VALID,0,
2017-01-29, 18:48:04,VALID,919.114,VALID,0,VALID,83.6517,VALID,410.425,VALID,24.3184,VALID,256,VALID,0,
2017-01-29, 18:49:04,VALID,919.089,VALID,0,VALID,84.0024,VALID,413.326,VALID,24.2989,VALID,242,VALID,0,
2017-01-29, 18:50:04,VALID,919.075,VALID,0,VALID,85.3289,VALID,414.293,VALID,24.3184,VALID,242,VALID,0,
2017-01-29, 18:51:04,VALID,919.06,VALID,0,VALID,86.8841,VALID,416.12,VALID,24.2793,VALID,242,VALID,0,
2017-01-29, 18:52:04,VALID,919.043,VALID,0,VALID,87.4025,VALID,399.681,VALID,24.1622,VALID,249,VALID,0,
2017-01-29, 18:53:04,VALID,919.057,VALID,0,VALID,87.9056,VALID,386.251,VALID,24.0274,VALID,254,VALID,0,
2017-01-29, 18:54:04,VALID,919.023,VALID,0,VALID,88.1267,VALID,379.912,VALID,23.9298,VALID,276,VALID,0,
2017-01-29, 18:55:04,VALID,919.031,VALID,0,VALID,102.009,VALID,378.085,VALID,23.967,VALID,271,VALID,0,
2017-01-29, 18:56:04,VALID,919.003,VALID,0,VALID,94.1721,VALID,378.623,VALID,23.9866,VALID,246,VALID,0,
2017-01-29, 18:57:04,VALID,918.964,VALID,0,VALID,94.881,VALID,379.16,VALID,23.889,VALID,237,VALID,0,
2017-01-29, 18:58:04,VALID,918.95,VALID,0,INVALID,117.599,VALID,377.978,VALID,23.9085,VALID,268,VALID,0,
2017-01-29, 18:59:04,VALID,918.929,VALID,0,VALID,102.939,VALID,375.722,VALID,23.9067,VALID,264,VALID,0,
2017-01-29, 19:00:04,VALID,918.903,VALID,0,VALID,92.0604,VALID,374.003,VALID,23.889,VALID,283,VALID,0,
2017-01-29, 19:01:04,VALID,918.894,VALID,0,INVALID,112.926,VALID,375.614,VALID,23.8499,VALID,239,VALID,0,
2017-01-29, 19:02:04,VALID,918.866,VALID,0,VALID,93.3411,VALID,376.366,VALID,23.967,VALID,343,VALID,0,
2017-01-29, 19:03:04,VALID,918.841,VALID,0,VALID,92.0604,VALID,376.689,VALID,24.0842,VALID,263,VALID,0,
2017-01-29, 19:04:04,VALID,918.854,VALID,0,VALID,86.8155,VALID,377.978,VALID,24.086,VALID,329,VALID,0,
2017-01-29, 19:05:04,VALID,918.831,VALID,0,VALID,89.659,VALID,381.738,VALID,24.1836,VALID,323,VALID,0,
2017-01-29, 19:06:04,VALID,918.815,VALID,0,VALID,84.0863,VALID,384.102,VALID,24.2208,VALID,285,VALID,0,
2017-01-29, 19:07:04,VALID,918.805,VALID,0,VALID,86.0836,VALID,384.424,VALID,24.3965,VALID,259,VALID,0,
2017-01-29, 19:08:04,VALID,918.769,VALID,0,VALID,85.3823,VALID,385.391,VALID,24.5331,VALID,329,VALID,0,
2017-01-29, 19:09:04,VALID,918.777,VALID,0,VALID,84.071,VALID,385.821,VALID,24.7283,VALID,333,VALID,0,
2017-01-29, 19:10:04,VALID,918.757,VALID,0,VALID,78.7346,VALID,385.606,VALID,24.8278,VALID,304,VALID,0,
2017-01-29, 19:11:04,VALID,918.785,VALID,0,VALID,83.5755,VALID,388.077,VALID,24.8455,VALID,12,VALID,0,
2017-01-29, 19:12:04,VALID,918.746,VALID,0,VALID,81.0903,VALID,391.193,VALID,24.9236,VALID,13,VALID,0,
2017-01-29, 19:13:04,VALID,918.749,VALID,0,VALID,82.5616,VALID,393.987,VALID,24.9626,VALID,13,VALID,0,
2017-01-29, 19:14:04,VALID,918.754,VALID,0,VALID,85.2069,VALID,398.607,VALID,25.0212,VALID,47,VALID,0,
2017-01-29, 19:15:04,VALID,918.778,VALID,0,VALID,83.4383,VALID,406.45,VALID,25.1988,VALID,30,VALID,0,
2017-01-29, 19:16:04,VALID,918.744,VALID,0,VALID,76.7983,VALID,417.516,VALID,25.2555,VALID,294,VALID,0,
2017-01-29, 19:17:04,VALID,918.745,VALID,0,VALID,78.1171,VALID,430.946,VALID,25.3726,VALID,294,VALID,0,
2017-01-29, 19:18:04,VALID,918.777,VALID,0,VALID,77.2176,VALID,445.666,VALID,25.3922,VALID,294,VALID,0,
2017-01-29, 19:19:04,VALID,918.72,VALID,0,VALID,75.8301,VALID,451.253,VALID,25.4312,VALID,294,VALID,0,
2017-01-29, 19:20:04,VALID,918.733,VALID,0,VALID,78.8566,VALID,473.063,VALID,25.4898,VALID,294,VALID,0,
2017-01-29, 19:21:04,VALID,918.706,VALID,0,VALID,76.0359,VALID,536.883,VALID,25.6655,VALID,27,VALID,0,
2017-01-29, 19:22:04,VALID,918.674,VALID,0,VALID,74.3512,VALID,507.552,VALID,25.7612,VALID,11,VALID,0,
2017-01-29, 19:23:04,VALID,918.646,VALID,0,VALID,73.5278,VALID,474.89,VALID,25.9194,VALID,1,VALID,0,
2017-01-29, 19:24:04,VALID,918.595,VALID,0,VALID,72.9637,VALID,462.749,VALID,26.0366,VALID,10,VALID,0,
2017-01-29, 19:25:04,VALID,918.582,VALID,0,VALID,72.9866,VALID,462.749,VALID,26.1538,VALID,330,VALID,0,
2017-01-29, 19:26:04,VALID,918.57,VALID,0,VALID,70.3489,VALID,472.526,VALID,26.2124,VALID,320,VALID,0,
2017-01-29, 19:27:04,VALID,918.564,VALID,0,VALID,71.0731,VALID,474.353,VALID,26.2124,VALID,303,VALID,0,
2017-01-29, 19:28:04,VALID,918.526,VALID,0,VALID,69.8229,VALID,480.907,VALID,26.1342,VALID,280,VALID,0,
2017-01-29, 19:29:04,VALID,918.515,VALID,0,VALID,71.5458,VALID,480.155,VALID,25.978,VALID,262,VALID,0,
2017-01-29, 19:30:04,VALID,918.491,VALID,0,VALID,73.3373,VALID,511.527,VALID,25.6265,VALID,250,VALID,0,
2017-01-29, 19:31:04,VALID,918.472,VALID,0,VALID,73.7794,VALID,661.3,VALID,25.4683,VALID,308,VALID,0,
2017-01-29, 19:32:04,VALID,918.435,VALID,0,VALID,74.2978,VALID,603.175,VALID,25.3531,VALID,291,VALID,0,
2017-01-29, 19:33:04,VALID,918.423,VALID,0,VALID,72.7121,VALID,714.269,VALID,24.9998,VALID,283,VALID,0,
2017-01-29, 19:34:04,VALID,918.4,VALID,0,VALID,72.9561,VALID,824.289,VALID,24.7283,VALID,270,VALID,0,
2017-01-29, 19:35:04,VALID,918.423,VALID,0,VALID,76.0817,VALID,757.782,VALID,24.6112,VALID,343,VALID,0,
2017-01-29, 19:36:04,VALID,918.35,VALID,0,VALID,76.6458,VALID,857.703,VALID,24.666,VALID,72,VALID,0,
2017-01-29, 19:37:04,VALID,918.348,VALID,0,VALID,74.1606,VALID,714.054,VALID,24.8241,VALID,74,VALID,0,
2017-01-29, 19:38:04,VALID,918.277,VALID,0,VALID,74.4198,VALID,681.284,VALID,24.9802,VALID,284,VALID,0,
2017-01-29, 19:39:04,VALID,918.248,VALID,0,VALID,75.9445,VALID,721.467,VALID,24.8845,VALID,263,VALID,0,
2017-01-29, 19:40:04,VALID,918.206,VALID,0,VALID,74.8086,VALID,670.863,VALID,24.8631,VALID,253,VALID,0,
2017-01-29, 19:41:04,VALID,918.225,VALID,0,VALID,79.2454,VALID,743.708,VALID,24.9059,VALID,261,VALID,0,
2017-01-29, 19:42:04,VALID,918.181,VALID,0,VALID,74.9229,VALID,719.104,VALID,24.865,VALID,246,VALID,0,
2017-01-29, 19:43:04,VALID,918.154,VALID,0,VALID,77.8122,VALID,824.181,VALID,24.9821,VALID,266,VALID,0,
2017-01-29, 19:44:04,VALID,918.101,VALID,0,VALID,73.7184,VALID,756.708,VALID,25.1774,VALID,254,VALID,0,
2017-01-29, 19:45:04,VALID,918.067,VALID,0,VALID,73.4974,VALID,722.434,VALID,25.3141,VALID,282,VALID,0,
2017-01-29, 19:46:04,VALID,918.015,VALID,0,VALID,71.6525,VALID,712.12,VALID,25.4293,VALID,240,VALID,0,
2017-01-29, 19:47:04,VALID,918.013,VALID,0,VALID,72.0641,VALID,705.996,VALID,25.3922,VALID,222,VALID,0,
2017-01-29, 19:48:04,VALID,918.005,VALID,0,VALID,73.6727,VALID,714.376,VALID,25.5289,VALID,192,VALID,0,
2017-01-29, 19:49:04,VALID,917.964,VALID,0,VALID,71.8126,VALID,768.204,VALID,25.8022,VALID,33,VALID,0,
2017-01-29, 19:50:04,VALID,917.928,VALID,0,VALID,69.861,VALID,855.339,VALID,25.9975,VALID,280,VALID,0,
2017-01-29, 19:51:04,VALID,917.906,VALID,0,VALID,69.2892,VALID,871.67,VALID,25.7612,VALID,256,VALID,0.0941406,
2017-01-29, 19:52:04,VALID,917.928,VALID,0,VALID,69.2892,VALID,810.643,VALID,25.7026,VALID,239,VALID,0,
2017-01-29, 19:53:04,VALID,917.895,VALID,0,VALID,66.2094,VALID,758.535,VALID,25.6851,VALID,288,VALID,0,